Regional Weather Roundup
Issued by NWS

Home | Current Version | Previous Version | Text Only | Print | Product List | Glossary On
Versions: 1 2 3 4 5 6 7 8 9 10 11 12 13 14 15 16 17 18 19 20 21 22 23 24 25 26 27 28 29 30 31 32 33 34 35 36 37 38 39 40 41 42 43 44 45 46 47 48 49 50
000
ASUS43 KMKX 300921
RWRWI

WISCONSIN REGIONAL WEATHER ROUNDUP
NATIONAL WEATHER SERVICE MILWAUKEE/SULLIVAN WI
400 AM CDT SAT AUG 30 2014

NOTE: "FAIR" INDICATES FEW OR NO CLOUDS BELOW 12,000 FEET WITH NO
SIGNIFICANT WEATHER AND/OR OBSTRUCTIONS TO VISIBILITY.

WIZ001-002-006>008-014>016-023>028-301000-
NORTHWEST WISCONSIN

CITY           SKY/WX    TMP DP  RH WIND       PRES   REMARKS
SUPERIOR ARPT  CLOUDY    61  61  99 CALM      29.79S FOG
ASHLAND        CLOUDY    62  60  93 NE5       29.80S
HAYWARD        RAIN      64  64 100 N3        29.78S FOG
SIREN          CLOUDY    64  63  97 N7        29.78S
RICE LAKE      DRIZZLE   65  63  95 CALM      29.78S
LADYSMITH      DRZL/FOG  65  64  97 NE3       29.77F VSB 1/2
EAU CLAIRE     CLOUDY    67  67 100 NW5       29.74S
MENOMONIE      CLOUDY    66  66  99 NW3       29.76S FOG
NEW RICHMOND   RAIN      65  65 100 CALM      29.77R
OSCEOLA        LGT RAIN  66  66 100 N6        29.79R
$$

WIZ003>005-009-010-017-018-301000-
NORTH CENTRAL WISCONSIN

CITY           SKY/WX    TMP DP  RH WIND       PRES   REMARKS
WOODRUFF       CLOUDY    64  63  94 CALM      29.78F FOG
RHINELANDER    LGT RAIN  63  62  97 CALM      29.78F
EAGLE RIVER    CLOUDY    63  63 100 CALM      29.77F FOG
LAND O LAKES   CLOUDY    64  64  99 CALM      29.79F FOG
PHILLIPS       CLOUDY    63  63 100 CALM      29.76F FOG
TOMAHAWK       LGT RAIN  63  62  96 CALM      29.77F
MEDFORD        RAIN      63  63  99 CALM      29.75F
MERRILL        RAIN      64  64 100 CALM      29.74F
$$

WIZ029-030-035-036-043>047-301000-
CENTRAL WISCONSIN

CITY           SKY/WX    TMP DP  RH WIND       PRES   REMARKS
WAUSAU         RAIN      65  65 100 E5        29.74S FOG
MOSINEE        DRIZZLE   63  63 100 E5        29.77S
MARSHFIELD     HVY RAIN  67  65  93 E6        29.75S FOG
STEVENS POINT  LGT RAIN  64  64  99 E5        29.76S
WAUPACA        CLOUDY    68  67  94 E8        29.75F
WAUTOMA        CLOUDY    69  68  97 S6        29.75F
WISC RAPIDS    CLOUDY    67  66  97 E6        29.75F
CAMP DOUGLAS   PTCLDY    68  68 100 SW7       29.73F
$$

WIZ011>013-019>022-031-037>040-048>050-301000-
NORTHEAST WISCONSIN

CITY           SKY/WX    TMP DP  RH WIND       PRES   REMARKS
ANTIGO         RAIN      63  63 100 CALM      29.78F
STURGEON BAY   CLOUDY    68  64  88 N6        29.77F
GREEN BAY      RAIN      67  67 100 E3        29.77S FOG
MANITOWOC      CLOUDY    70  69  97 S7        29.77F FOG
APPLETON       CLOUDY    66  64  94 E6        29.77F
CLINTONVILLE   RAIN      64  64 100 CALM      29.76S
OSHKOSH        CLOUDY    71  69  93 S7        29.76F
$$

WIZ032>034-041-042-053>061-301000-
SOUTHWEST WISCONSIN

CITY           SKY/WX    TMP DP  RH WIND       PRES   REMARKS
LA CROSSE      LGT RAIN  69  67  93 CALM      29.73F
SPARTA         DRIZZLE   67  66  97 CALM      29.74F
VIROQUA        CLOUDY    66  66 100 SW5       29.77S
BOSCOBEL       CLOUDY    70  67  90 S3        29.76F
PRAIRIE DU CHI LGT RAIN  69  66  90 CALM      29.76S
PLATTEVILLE    MOCLDY    71  69  95 S9        29.79F
$$

WIZ056-057-062-063-064-067-068-301000-
SOUTH CENTRAL WISCONSIN

CITY           SKY/WX    TMP DP  RH WIND       PRES   REMARKS
BARABOO/DELLS  MOCLDY    69  66  89 SW10      29.75F
LONE ROCK      CLOUDY    74  68  81 SW3       29.77S
WATERTOWN      CLOUDY    71  69  95 S9        29.79S
MADISON        CLOUDY    72  68  87 S8        29.78S
MIDDLETON      CLOUDY    72  70  94 SW7       29.79S
MONROE         CLOUDY    70  68  94 S10       29.80S
JANESVILLE     CLOUDY    72  68  88 SW7       29.80F
$$

WIZ051-052-058>065-066-070>072-301000-
SOUTHEAST WISCONSIN

CITY           SKY/WX    TMP DP  RH WIND       PRES   REMARKS
MILWAUKEE      LGT RAIN  74  68  81 S9        29.80F
WAUKESHA       CLOUDY    70  66  88 S6        29.81F
MILWAUKEE/TIMM LGT RAIN  72  66  83 S8        29.80F
RACINE         CLOUDY    74  68  81 S7        29.82S
BURLINGTON     CLOUDY    70  67  91 SW8       29.81S
KENOSHA        CLOUDY    75  69  81 SW12G20   29.82S
FOND DU LAC    CLOUDY    72  68  87 S10       29.77S
SHEBOYGAN      LGT RAIN  70  68  93 S7        29.78F FOG
WEST BEND      CLOUDY    70  64  83 S6        29.79F
JUNEAU         CLOUDY    71  68  90 S13G18    29.79S
$$

LSZ147-162-301000-
LAKE SUPERIOR

STATION/POSITION TIME  TEMP    WIND        PRES    WAVE
                       AIR SEA DIR/SP/G            HT/PER
                 (UTC) (F)     (DEG/KT/KT) (MB)    (FT/S)
W MID LAKE BUOY  0850   58 58   40/  6/  6 1008.6F   1
DEVILS ISLAND    0900   60      80/  5/  6 1008.9S
PORT WING        0840   62      40/  3/  3 1009.1S
SAXON HARBOR     0840   63      50/  1/  4 1008.8F
$$

LMZ867-665-643>646-301000-
LAKE MICHIGAN

STATION/POSITION TIME  TEMP    WIND        PRES    WAVE
                       AIR SEA DIR/SP/G            HT/PER
                 (UTC) (F)     (DEG/KT/KT) (MB)    (FT/S)
N MID LAKE BUOY  0850   68 65  230/ 16/ 17 1008.5R   4/ 7
NORTHPORT PIER   0800   69     170/  2/  4 1008.5F
SISTER BAY       0811   69     330/ 10/ 11   N/A
KEWAUNEE LAKESHO 0900   71     190/  2/  6 1007.5R
SHEBOYGAN LAKESH 0900   69 62  180/ 19/ 21 1008.4F
ATWATER BUOY     0900   68     170/  8/ 10 1010.0S
MILWAUKEE LAKESH 0900   74     200/ 10/ 11   N/A
S MID LAKE BUOY  0850   72 69  170/ 17/ 19 1009.5F
KENOSHA   LAKESH 0800   71     180/ 12/ 13 1009.5F
$$

TC  - TEMPERATURE IN CELSIUS
VSB - VISIBILITY IN STATUTE MILES
WCI - WIND CHILL INDEX
HX  - HEAT INDEX




USA.gov is the U.S. government's official web portal to all federal, state and local government web resources and services.